EW3259 Weather Reports


Display with metric or nautical units.
time (UTC)temp
F
wind
direction
speed
MPH
gust
MPH
rain 1hr
in
rain 24hr
in
rain mn
in
humidity
%
barometer
mb
20260504130518 61 33 3.0 7.0 0.00 0.00 0.00 66 981.7
20260504120218 53 359 1.0 2.0 0.00 0.00 0.00 79 981.3
20260504100518 51 270 0.0 2.0 0.00 0.00 0.00 77 980.8
20260504081718 53 38 0.0 2.0 0.00 0.00 0.00 70 980.9
20260504080818 53 51 1.0 2.0 0.00 0.00 0.00 70 981.1
20260504060218 54 36 0.0 2.0 0.00 0.00 0.00 67 981.9
20260504045918 55 51 1.0 2.0 0.00 0.00 0.00 64 982.1
20260504044119 54 63 1.0 2.0 0.00 0.00 0.00 64 982.0
20260504043218 54 38 1.0 2.0 0.00 0.00 0.00 64 982.1
20260504042318 54 40 0.0 2.0 0.00 0.00 0.00 64 982.2
20260504041419 54 31 0.0 2.0 0.00 0.00 0.00 62 982.2
20260504040519 55 62 0.0 2.0 0.00 0.00 0.00 61 982.6
20260504035618 55 47 0.0 2.0 0.00 0.00 0.00 61 982.3
20260504033818 55 28 1.0 2.0 0.00 0.00 0.00 61 982.5
20260504032018 55 30 0.0 2.0 0.00 0.00 0.00 60 982.5
20260504031118 56 16 0.0 2.0 0.00 0.00 0.00 58 982.5
20260504030218 57 70 0.0 2.0 0.00 0.00 0.00 57 982.5
20260504025318 57 84 0.0 1.0 0.00 0.00 0.00 56 982.4
20260504024418 58 41 0.0 2.0 0.00 0.00 0.00 55 982.5
20260504023518 58 42 0.0 2.0 0.00 0.00 0.00 55 982.7
20260504021719 56 32 1.0 2.0 0.00 0.00 0.00 58 982.5
20260504020818 56 37 0.0 2.0 0.00 0.00 0.00 59 982.4
20260504015918 55 34 0.0 2.0 0.00 0.00 0.00 61 982.4
20260504015018 55 1 0.0 2.0 0.00 0.00 0.00 62 982.5
20260504014119 55 10 1.0 2.0 0.00 0.00 0.00 61 982.4
20260504010518 59 1 0.0 1.0 0.00 0.00 0.00 51 982.2
20260504005618 60 0 0.0 0.0 0.00 0.00 0.00 50 982.1
20260504004718 62 8 0.0 1.0 0.00 0.00 0.00 44 982.1
20260504003818 63 43 0.0 2.0 0.00 0.00 0.00 42 981.9
20260504002018 65 54 0.0 3.0 0.00 0.00 0.00 39 981.8
20260504001118 66 54 0.0 4.0 0.00 0.00 0.00 38 982.0
20260504000219 66 52 1.0 4.0 0.00 0.00 0.00 37 982.0
20260503235318 67 25 1.0 3.0 0.00 0.00 0.00 37 982.1
20260503234418 67 54 1.0 3.0 0.00 0.00 0.00 37 982.1
20260503233518 67 68 3.0 4.0 0.00 0.00 0.00 36 982.2
20260503232618 67 42 2.0 4.0 0.00 0.00 0.00 35 982.3
20260503231718 68 124 0.0 5.0 0.00 0.00 0.00 35 982.4
20260503225918 68 15 1.0 7.0 0.00 0.00 0.00 33 982.6
20260503225018 69 55 1.0 6.0 0.00 0.00 0.00 32 982.6
20260503224118 69 53 2.0 4.0 0.00 0.00 0.00 32 982.8
20260503223218 69 56 2.0 5.0 0.00 0.00 0.00 32 982.8
20260503222320 69 91 3.0 7.0 0.00 0.00 0.00 30 982.9
20260503221418 70 127 3.0 8.0 0.00 0.00 0.00 30 982.9
20260503220518 70 342 3.0 5.0 0.00 0.00 0.00 30 982.8
20260503215618 70 153 2.0 7.0 0.00 0.00 0.00 29 982.8
20260503214718 70 12 6.0 7.0 0.00 0.00 0.00 30 983.1
20260503213819 70 93 2.0 8.0 0.00 0.00 0.00 31 983.0
20260503212919 70 135 4.0 8.0 0.00 0.00 0.00 30 983.2
20260503212018 70 108 4.0 6.0 0.00 0.00 0.00 30 983.2
20260503210218 70 153 2.0 9.0 0.00 0.00 0.00 31 983.6
20260503204419 70 161 4.0 8.0 0.00 0.00 0.00 32 983.6
20260503203518 70 38 5.0 7.0 0.00 0.00 0.00 34 983.9
20260503202618 70 110 3.0 6.0 0.00 0.00 0.00 35 983.9
20260503201718 69 77 3.0 11.0 0.00 0.00 0.00 33 984.2
20260503200818 70 323 5.0 7.0 0.00 0.00 0.00 35 984.4
20260503195918 69 109 3.0 4.0 0.00 0.00 0.00 34 984.5
20260503195018 69 93 2.0 6.0 0.00 0.00 0.00 33 984.5
20260503194118 69 140 3.0 6.0 0.00 0.00 0.00 35 984.7
20260503193218 69 123 3.0 7.0 0.00 0.00 0.00 34 984.7
20260503192319 68 131 2.0 5.0 0.00 0.00 0.00 35 984.9
20260503191418 67 41 2.0 7.0 0.00 0.00 0.00 35 985.1
20260503190519 67 37 4.0 7.0 0.00 0.00 0.00 35 985.3
20260503185618 68 43 3.0 8.0 0.00 0.00 0.00 36 985.4
20260503184718 68 72 2.0 7.0 0.00 0.00 0.00 34 985.3
20260503183819 67 342 3.0 4.0 0.00 0.00 0.00 34 985.5
20260503182918 67 130 2.0 5.0 0.00 0.00 0.00 33 985.7
20260503182018 66 149 3.0 4.0 0.00 0.00 0.00 36 985.8
20260503181119 67 79 3.0 5.0 0.00 0.00 0.00 36 985.9
20260503180218 66 20 1.0 8.0 0.00 0.00 0.00 37 986.0
20260503175318 67 339 3.0 6.0 0.00 0.00 0.00 38 986.1
20260503174418 66 156 3.0 8.0 0.00 0.00 0.00 36 986.2
20260503173518 65 41 1.0 6.0 0.00 0.00 0.00 34 986.1
20260503172619 66 129 4.0 5.0 0.00 0.00 0.00 36 986.4
20260503171719 65 76 3.0 5.0 0.00 0.00 0.00 37 986.2
20260503170818 64 126 4.0 8.0 0.00 0.00 0.00 38 986.5
20260503150219 60 44 2.0 4.0 0.00 0.00 0.00 50 987.1